| time (UTC) | temp F | wind direction | speed MPH | gust MPH | rain 1hr in | rain 24hr in | rain mn in | humidity % | barometer mb |
| 20260505034838 | 72 | 168 | 2.0 | 3.0 | 0.00 | 0.00 | 0.00 | 87 | 1015.7 |
| 20260505034334 | 72 | 242 | 1.0 | 5.0 | 0.00 | 0.00 | 0.00 | 86 | 1015.9 |
| 20260505033831 | 72 | 158 | 1.0 | 7.0 | 0.00 | 0.00 | 0.00 | 86 | 1015.7 |
| 20260505033328 | 72 | 161 | 3.0 | 5.0 | 0.00 | 0.00 | 0.00 | 86 | 1015.6 |
| 20260505032826 | 72 | 183 | 1.0 | 4.0 | 0.00 | 0.00 | 0.00 | 85 | 1015.6 |
| 20260505032322 | 72 | 166 | 2.0 | 5.0 | 0.00 | 0.00 | 0.00 | 85 | 1015.6 |
| 20260505031820 | 72 | 245 | 0.0 | 3.0 | 0.00 | 0.00 | 0.00 | 85 | 1015.7 |
| 20260505031316 | 72 | 129 | 2.0 | 5.0 | 0.00 | 0.00 | 0.00 | 85 | 1015.8 |
| 20260505030813 | 72 | 146 | 2.0 | 5.0 | 0.00 | 0.00 | 0.00 | 84 | 1015.7 |
| 20260505030310 | 72 | 228 | 1.0 | 4.0 | 0.00 | 0.00 | 0.00 | 84 | 1015.8 |
| 20260505025804 | 72 | 142 | 3.0 | 5.0 | 0.00 | 0.00 | 0.00 | 84 | 1015.9 |
| 20260505025304 | 73 | 141 | 3.0 | 5.0 | 0.00 | 0.00 | 0.00 | 83 | 1015.9 |
| 20260505024801 | 72 | 188 | 2.0 | 4.0 | 0.00 | 0.00 | 0.00 | 83 | 1015.7 |
| 20260505024258 | 73 | 148 | 2.0 | 5.0 | 0.00 | 0.00 | 0.00 | 83 | 1015.7 |
| 20260505023755 | 73 | 180 | 0.0 | 9.0 | 0.00 | 0.00 | 0.00 | 83 | 1015.5 |
| 20260505023252 | 73 | 199 | 0.0 | 7.0 | 0.00 | 0.00 | 0.00 | 83 | 1015.7 |
| 20260505022749 | 73 | 137 | 3.0 | 7.0 | 0.00 | 0.00 | 0.00 | 83 | 1015.7 |
| 20260505022246 | 73 | 142 | 3.0 | 5.0 | 0.00 | 0.00 | 0.00 | 82 | 1015.7 |
| 20260505021743 | 73 | 256 | 0.0 | 4.0 | 0.00 | 0.00 | 0.00 | 82 | 1015.7 |
| 20260505021240 | 73 | 190 | 2.0 | 4.0 | 0.00 | 0.00 | 0.00 | 82 | 1015.7 |
| 20260505020736 | 73 | 183 | 0.0 | 3.0 | 0.00 | 0.00 | 0.00 | 82 | 1015.5 |
| 20260505020231 | 73 | 198 | 0.0 | 3.0 | 0.00 | 0.00 | 0.00 | 81 | 1015.7 |
| 20260505015729 | 74 | 182 | 0.0 | 6.0 | 0.00 | 0.00 | 0.00 | 81 | 1015.5 |
| 20260505015225 | 74 | 155 | 2.0 | 5.0 | 0.00 | 0.00 | 0.00 | 81 | 1015.6 |
| 20260505014722 | 74 | 202 | 2.0 | 9.0 | 0.00 | 0.00 | 0.00 | 81 | 1015.5 |
| 20260505014220 | 74 | 210 | 1.0 | 7.0 | 0.00 | 0.00 | 0.00 | 80 | 1015.3 |
| 20260505013716 | 74 | 166 | 1.0 | 5.0 | 0.00 | 0.00 | 0.00 | 81 | 1015.4 |
| 20260505013214 | 74 | 148 | 2.0 | 9.0 | 0.00 | 0.00 | 0.00 | 81 | 1015.4 |
| 20260505012712 | 74 | 104 | 7.0 | 9.0 | 0.00 | 0.00 | 0.00 | 80 | 1015.5 |
| 20260505012209 | 74 | 244 | 2.0 | 11.0 | 0.00 | 0.00 | 0.00 | 80 | 1015.7 |
| 20260505011704 | 74 | 87 | 5.0 | 11.0 | 0.00 | 0.00 | 0.00 | 80 | 1015.2 |
| 20260505011202 | 74 | 159 | 3.0 | 5.0 | 0.00 | 0.00 | 0.00 | 80 | 1015.5 |
| 20260505010657 | 74 | 114 | 0.0 | 4.0 | 0.00 | 0.00 | 0.00 | 79 | 1015.3 |
| 20260505010154 | 74 | 156 | 0.0 | 4.0 | 0.00 | 0.00 | 0.00 | 79 | 1015.4 |
| 20260505005650 | 74 | 184 | 1.0 | 6.0 | 0.00 | 0.00 | 0.00 | 79 | 1015.3 |
| 20260505005147 | 74 | 104 | 1.0 | 12.0 | 0.00 | 0.00 | 0.00 | 78 | 1015.1 |
| 20260505004644 | 74 | 147 | 2.0 | 8.0 | 0.00 | 0.00 | 0.00 | 78 | 1015.1 |
| 20260505004141 | 75 | 164 | 3.0 | 11.0 | 0.00 | 0.00 | 0.00 | 77 | 1015.1 |
| 20260505003638 | 75 | 139 | 2.0 | 6.0 | 0.00 | 0.00 | 0.00 | 77 | 1015.3 |
| 20260505003136 | 75 | 168 | 1.0 | 6.0 | 0.00 | 0.00 | 0.00 | 76 | 1015.2 |
| 20260505002631 | 75 | 224 | 3.0 | 9.0 | 0.00 | 0.00 | 0.00 | 75 | 1015.4 |
| 20260505002130 | 76 | 168 | 2.0 | 6.0 | 0.00 | 0.00 | 0.00 | 75 | 1015.3 |
| 20260505001626 | 76 | 168 | 3.0 | 10.0 | 0.00 | 0.00 | 0.00 | 74 | 1015.1 |
| 20260505001124 | 76 | 194 | 2.0 | 7.0 | 0.00 | 0.00 | 0.00 | 74 | 1015.4 |
| 20260505000621 | 77 | 142 | 5.0 | 11.0 | 0.00 | 0.00 | 0.00 | 73 | 1015.3 |
| 20260505000119 | 77 | 136 | 2.0 | 8.0 | 0.00 | 0.00 | 0.00 | 72 | 1015.4 |
| 20260504235615 | 78 | 211 | 3.0 | 6.0 | 0.00 | 0.00 | 0.00 | 72 | 1015.8 |
| 20260504235112 | 77 | 273 | 4.0 | 6.0 | 0.00 | 0.00 | 0.00 | 72 | 1015.4 |
| 20260504234609 | 77 | 204 | 1.0 | 8.0 | 0.00 | 0.00 | 0.00 | 73 | 1015.4 |
| 20260504234106 | 77 | 185 | 2.0 | 5.0 | 0.00 | 0.00 | 0.00 | 74 | 1015.5 |
| 20260504233601 | 77 | 219 | 3.0 | 12.0 | 0.00 | 0.00 | 0.00 | 73 | 1015.6 |
| 20260504233058 | 77 | 218 | 2.0 | 10.0 | 0.00 | 0.00 | 0.00 | 73 | 1015.5 |
| 20260504232555 | 78 | 195 | 5.0 | 9.0 | 0.00 | 0.00 | 0.00 | 72 | 1015.6 |
| 20260504232053 | 78 | 147 | 2.0 | 5.0 | 0.00 | 0.00 | 0.00 | 71 | 1015.7 |
| 20260504231549 | 78 | 249 | 4.0 | 10.0 | 0.00 | 0.00 | 0.00 | 72 | 1015.7 |
| 20260504231045 | 77 | 140 | 4.0 | 5.0 | 0.00 | 0.00 | 0.00 | 73 | 1015.9 |
| 20260504230541 | 77 | 161 | 4.0 | 12.0 | 0.00 | 0.00 | 0.00 | 73 | 1016.0 |
| 20260504230041 | 77 | 204 | 5.0 | 8.0 | 0.00 | 0.00 | 0.00 | 72 | 1016.0 |
| 20260504225537 | 78 | 160 | 3.0 | 10.0 | 0.00 | 0.00 | 0.00 | 71 | 1016.0 |
| 20260504225035 | 78 | 237 | 1.0 | 3.0 | 0.00 | 0.00 | 0.00 | 71 | 1015.9 |
| 20260504224531 | 77 | 258 | 2.0 | 5.0 | 0.00 | 0.00 | 0.00 | 72 | 1016.0 |
| 20260504224028 | 78 | 261 | 3.0 | 7.0 | 0.00 | 0.00 | 0.00 | 71 | 1016.0 |
| 20260504223525 | 78 | 88 | 2.0 | 10.0 | 0.00 | 0.00 | 0.00 | 71 | 1016.2 |
| 20260504223021 | 78 | 202 | 2.0 | 7.0 | 0.00 | 0.00 | 0.00 | 71 | 1016.1 |
| 20260504222518 | 78 | 208 | 3.0 | 9.0 | 0.00 | 0.00 | 0.00 | 70 | 1016.2 |
| 20260504222015 | 77 | 210 | 2.0 | 5.0 | 0.00 | 0.00 | 0.00 | 71 | 1016.3 |
| 20260504221513 | 77 | 209 | 2.0 | 7.0 | 0.00 | 0.00 | 0.00 | 71 | 1016.5 |
| 20260504221009 | 78 | 238 | 7.0 | 9.0 | 0.00 | 0.00 | 0.00 | 70 | 1016.5 |
| 20260504220506 | 78 | 144 | 2.0 | 7.0 | 0.00 | 0.00 | 0.00 | 70 | 1016.5 |
| 20260504220003 | 79 | 140 | 2.0 | 5.0 | 0.00 | 0.00 | 0.00 | 69 | 1016.6 |
| 20260504215459 | 79 | 229 | 2.0 | 5.0 | 0.00 | 0.00 | 0.00 | 69 | 1016.6 |
| 20260504214956 | 79 | 168 | 3.0 | 11.0 | 0.00 | 0.00 | 0.00 | 69 | 1016.6 |
| 20260504214452 | 78 | 215 | 1.0 | 7.0 | 0.00 | 0.00 | 0.00 | 69 | 1016.5 |
| 20260504213949 | 78 | 215 | 2.0 | 7.0 | 0.00 | 0.00 | 0.00 | 70 | 1016.7 |
| 20260504213445 | 78 | 97 | 3.0 | 16.0 | 0.00 | 0.00 | 0.00 | 69 | 1017.0 |
| 20260504212943 | 79 | 201 | 1.0 | 5.0 | 0.00 | 0.00 | 0.00 | 67 | 1016.7 |
| 20260504212438 | 80 | 180 | 2.0 | 10.0 | 0.00 | 0.00 | 0.00 | 66 | 1016.9 |
| 20260504211936 | 79 | 142 | 11.0 | 16.0 | 0.00 | 0.00 | 0.00 | 67 | 1016.8 |
| 20260504211432 | 79 | 240 | 3.0 | 18.0 | 0.00 | 0.00 | 0.00 | 67 | 1016.8 |
| 20260504210930 | 81 | 242 | 0.0 | 7.0 | 0.00 | 0.00 | 0.00 | 66 | 1016.8 |
| 20260504210427 | 81 | 254 | 2.0 | 6.0 | 0.00 | 0.00 | 0.00 | 64 | 1017.1 |
| 20260504205924 | 82 | 239 | 2.0 | 5.0 | 0.00 | 0.00 | 0.00 | 63 | 1016.9 |
| 20260504205421 | 83 | 210 | 2.0 | 9.0 | 0.00 | 0.00 | 0.00 | 61 | 1017.2 |
| 20260504204919 | 81 | 192 | 4.0 | 13.0 | 0.00 | 0.00 | 0.00 | 64 | 1016.8 |
| 20260504204417 | 82 | 150 | 2.0 | 4.0 | 0.00 | 0.00 | 0.00 | 62 | 1017.2 |
| 20260504203917 | 82 | 262 | 3.0 | 10.0 | 0.00 | 0.00 | 0.00 | 62 | 1017.2 |
| 20260504203414 | 82 | 225 | 3.0 | 7.0 | 0.00 | 0.00 | 0.00 | 62 | 1017.3 |
| 20260504202909 | 82 | 260 | 0.0 | 4.0 | 0.00 | 0.00 | 0.00 | 61 | 1017.4 |
| 20260504202406 | 82 | 188 | 2.0 | 9.0 | 0.00 | 0.00 | 0.00 | 62 | 1017.4 |
| 20260504201903 | 82 | 107 | 3.0 | 6.0 | 0.00 | 0.00 | 0.00 | 61 | 1017.5 |
| 20260504201401 | 83 | 229 | 3.0 | 4.0 | 0.00 | 0.00 | 0.00 | 60 | 1017.5 |
| 20260504200857 | 82 | 192 | 3.0 | 7.0 | 0.00 | 0.00 | 0.00 | 61 | 1017.5 |
| 20260504200354 | 83 | 235 | 2.0 | 5.0 | 0.00 | 0.00 | 0.00 | 59 | 1017.6 |
| 20260504195851 | 82 | 253 | 2.0 | 7.0 | 0.00 | 0.00 | 0.00 | 61 | 1017.7 |
| 20260504195346 | 84 | 300 | 2.0 | 7.0 | 0.00 | 0.00 | 0.00 | 59 | 1017.7 |
| 20260504194843 | 84 | 48 | 2.0 | 4.0 | 0.00 | 0.00 | 0.00 | 59 | 1017.9 |
| 20260504194339 | 83 | 235 | 4.0 | 6.0 | 0.00 | 0.00 | 0.00 | 60 | 1017.8 |
| 20260504193835 | 82 | 251 | 3.0 | 12.0 | 0.00 | 0.00 | 0.00 | 61 | 1017.7 |
| 20260504193333 | 81 | 231 | 3.0 | 7.0 | 0.00 | 0.00 | 0.00 | 62 | 1018.2 |
| 20260504192831 | 84 | 169 | 3.0 | 8.0 | 0.00 | 0.00 | 0.00 | 59 | 1018.1 |
| 20260504192329 | 82 | 219 | 0.0 | 8.0 | 0.00 | 0.00 | 0.00 | 59 | 1018.2 |
| 20260504191827 | 84 | 260 | 4.0 | 5.0 | 0.00 | 0.00 | 0.00 | 56 | 1018.2 |
| 20260504191324 | 83 | 222 | 3.0 | 8.0 | 0.00 | 0.00 | 0.00 | 58 | 1018.3 |
| 20260504190820 | 83 | 350 | 2.0 | 13.0 | 0.00 | 0.00 | 0.00 | 59 | 1018.2 |
| 20260504190316 | 83 | 112 | 2.0 | 11.0 | 0.00 | 0.00 | 0.00 | 60 | 1018.4 |
| 20260504185813 | 81 | 108 | 3.0 | 5.0 | 0.00 | 0.00 | 0.00 | 62 | 1018.4 |
| 20260504185310 | 81 | 212 | 1.0 | 8.0 | 0.00 | 0.00 | 0.00 | 61 | 1018.6 |
| 20260504184806 | 82 | 92 | 1.0 | 8.0 | 0.00 | 0.00 | 0.00 | 62 | 1018.2 |
| 20260504184302 | 83 | 233 | 2.0 | 5.0 | 0.00 | 0.00 | 0.00 | 59 | 1018.5 |
| 20260504183757 | 82 | 226 | 1.0 | 5.0 | 0.00 | 0.00 | 0.00 | 60 | 1018.3 |
| 20260504183254 | 82 | 209 | 1.0 | 9.0 | 0.00 | 0.00 | 0.00 | 61 | 1018.3 |
| 20260504182753 | 83 | 161 | 1.0 | 7.0 | 0.00 | 0.00 | 0.00 | 61 | 1018.7 |
| 20260504182250 | 82 | 206 | 2.0 | 7.0 | 0.00 | 0.00 | 0.00 | 59 | 1018.8 |
| 20260504181747 | 82 | 171 | 3.0 | 11.0 | 0.00 | 0.00 | 0.00 | 61 | 1018.7 |
| 20260504181244 | 82 | 273 | 2.0 | 6.0 | 0.00 | 0.00 | 0.00 | 60 | 1018.8 |
| 20260504180743 | 81 | 310 | 0.0 | 6.0 | 0.00 | 0.00 | 0.00 | 61 | 1018.8 |
| 20260504180242 | 81 | 220 | 6.0 | 13.0 | 0.00 | 0.00 | 0.00 | 60 | 1018.9 |
| 20260504175739 | 79 | 226 | 0.0 | 9.0 | 0.00 | 0.00 | 0.00 | 63 | 1019.0 |
| 20260504175235 | 80 | 158 | 5.0 | 10.0 | 0.00 | 0.00 | 0.00 | 62 | 1019.1 |
| 20260504174733 | 81 | 170 | 5.0 | 11.0 | 0.00 | 0.00 | 0.00 | 61 | 1018.8 |
| 20260504174231 | 80 | 168 | 5.0 | 6.0 | 0.00 | 0.00 | 0.00 | 60 | 1019.0 |
| 20260504173727 | 82 | 144 | 4.0 | 7.0 | 0.00 | 0.00 | 0.00 | 59 | 1019.2 |
| 20260504173224 | 81 | 231 | 6.0 | 15.0 | 0.00 | 0.00 | 0.00 | 59 | 1019.4 |
| 20260504172721 | 83 | 104 | 1.0 | 5.0 | 0.00 | 0.00 | 0.00 | 58 | 1019.5 |
| 20260504172217 | 82 | 200 | 3.0 | 7.0 | 0.00 | 0.00 | 0.00 | 60 | 1019.2 |
| 20260504171714 | 81 | 261 | 3.0 | 5.0 | 0.00 | 0.00 | 0.00 | 62 | 1019.6 |
| 20260504171211 | 81 | 207 | 4.0 | 19.0 | 0.00 | 0.00 | 0.00 | 60 | 1019.5 |
| 20260504170708 | 81 | 239 | 2.0 | 9.0 | 0.00 | 0.00 | 0.00 | 61 | 1019.6 |
| 20260504170206 | 81 | 227 | 5.0 | 7.0 | 0.00 | 0.00 | 0.00 | 59 | 1019.6 |
| 20260504160124 | 80 | 150 | 2.0 | 9.0 | 0.00 | 0.00 | 0.00 | 60 | 1020.1 |
| 20260504151051 | 77 | 244 | 1.0 | 9.0 | 0.00 | 0.00 | 0.00 | 67 | 1020.2 |
| 20260504150548 | 77 | 204 | 1.0 | 9.0 | 0.00 | 0.00 | 0.00 | 68 | 1020.3 |
| 20260504141014 | 75 | 215 | 3.0 | 10.0 | 0.00 | 0.00 | 0.00 | 70 | 1020.2 |
| 20260504140511 | 74 | 211 | 3.0 | 4.0 | 0.00 | 0.00 | 0.00 | 71 | 1020.0 |
| 20260504130435 | 69 | 155 | 1.0 | 2.0 | 0.00 | 0.00 | 0.00 | 76 | 1020.2 |
| 20260504110322 | 58 | 133 | 0.0 | 2.0 | 0.00 | 0.00 | 0.00 | 95 | 1019.8 |
| 20260504100240 | 59 | 119 | 1.0 | 3.0 | 0.00 | 0.00 | 0.00 | 92 | 1019.9 |
| 20260504081633 | 62 | 132 | 0.0 | 1.0 | 0.00 | 0.00 | 0.00 | 79 | 1020.8 |
| 20260504081129 | 63 | 114 | 1.0 | 3.0 | 0.00 | 0.00 | 0.00 | 78 | 1020.7 |
| 20260504080626 | 63 | 127 | 1.0 | 2.0 | 0.00 | 0.00 | 0.00 | 77 | 1021.0 |
| 20260504080122 | 64 | 112 | 0.0 | 2.0 | 0.00 | 0.00 | 0.00 | 76 | 1021.0 |
| 20260504050439 | 62 | 109 | 1.0 | 2.0 | 0.00 | 0.00 | 0.00 | 80 | 1022.5 |
| 20260504045936 | 61 | 111 | 1.0 | 2.0 | 0.00 | 0.00 | 0.00 | 80 | 1022.6 |
| 20260504045432 | 62 | 141 | 1.0 | 2.0 | 0.00 | 0.00 | 0.00 | 80 | 1022.9 |
| 20260504044928 | 62 | 240 | 0.0 | 1.0 | 0.00 | 0.00 | 0.00 | 80 | 1022.8 |
| 20260504044426 | 62 | 142 | 0.0 | 1.0 | 0.00 | 0.00 | 0.00 | 79 | 1022.7 |
| 20260504043923 | 63 | 119 | 0.0 | 1.0 | 0.00 | 0.00 | 0.00 | 78 | 1022.7 |
| 20260504043420 | 62 | 124 | 0.0 | 1.0 | 0.00 | 0.00 | 0.00 | 78 | 1022.8 |
| 20260504042917 | 63 | 129 | 0.0 | 2.0 | 0.00 | 0.00 | 0.00 | 76 | 1023.0 |
| 20260504042414 | 63 | 119 | 0.0 | 1.0 | 0.00 | 0.00 | 0.00 | 75 | 1023.1 |
| 20260504041910 | 63 | 113 | 0.0 | 2.0 | 0.00 | 0.00 | 0.00 | 75 | 1022.7 |
| 20260504041406 | 63 | 129 | 0.0 | 2.0 | 0.00 | 0.00 | 0.00 | 74 | 1022.6 |
| 20260504040902 | 64 | 120 | 0.0 | 1.0 | 0.00 | 0.00 | 0.00 | 73 | 1022.6 |
| 20260504040400 | 64 | 139 | 0.0 | 2.0 | 0.00 | 0.00 | 0.00 | 72 | 1022.7 |
| 20260504035856 | 64 | 139 | 1.0 | 2.0 | 0.00 | 0.00 | 0.00 | 72 | 1022.6 |
| 20260504035354 | 64 | 157 | 1.0 | 2.0 | 0.00 | 0.00 | 0.00 | 72 | 1022.8 |